Home   Weather   Zug   Past weeks

Flag for Switzerland Past Weather in Zug, Zug, Switzerland — Yesterday and Last 2 Weeks

Now
63 °F

Mild.


Feels Like: 63 °F
Forecast: 58 / 85 °F
Wind: 1 mph from Southeast

Location: Zuerich-Fluntern

Current Time: May 28, 2017 at 4:55:22 am

Latest Report: May 28, 2017 at 4:00 am


Visibility: N/A

Pressure: 30.11 "Hg

Humidity: 73%

Dew Point: 54 °F

Location of ZugLocation

Past Weather in Zug — Graph

°F

Zug Temperature Yesterday

Maximum temperature yesterday: 83 °F (at 5:00 pm)
Minimum temperature yesterday: 54 °F (at 6:00 am)
Average temperature yesterday: 69 °F

High & Low Weather Summary for the Past Weeks

 TemperatureHumidityPressure
High83 °F (May 27, 5:00 pm)96% (May 14, 2:00 am)30.43 "Hg (May 14, 2:00 am)
Low41 °F (May 20, 6:00 am)25% (May 16, 4:00 pm)29.79 "Hg (May 18, 7:00 pm)
Average62 °F63%30.12 "Hg
* Reported May 13 3:00 am — May 28 3:00 am, Zug. Weather by CustomWeather, © 2017

Note: Actual official high and low records may vary slightly from our data, if they occured in-between our weather recording intervals... More about our weather records

Advertising

Zug Weather History for the Previous 24 Hours

Scroll right to see more
 ConditionsComfort  
Time TempWeatherWind HumidityBarometerVisibility
3:00 am
Sun, May 28
64 °FMild.1 mph69%30.11 "HgN/A
2:00 am65 °FMild.1 mph66%30.11 "HgN/A
1:00 am67 °FMild.1 mph58%30.09 "HgN/A
12:00 am68 °FMild.1 mph58%30.09 "HgN/A
11:00 pm
Sat, May 27
69 °FMild.2 mph54%30.08 "HgN/A
10:00 pm71 °FMild.3 mph50%30.06 "HgN/A
9:00 pm72 °FMild.3 mph44%30.03 "HgN/A
8:00 pm77 °FSunny.2 mph40%30.00 "HgN/A
7:00 pm82 °FPleasantly warm.3 mph29%29.97 "HgN/A
6:00 pm83 °FPleasantly warm.3 mph30%29.98 "HgN/A
5:00 pm83 °FPleasantly warm.3 mph31%29.98 "HgN/A
4:00 pm82 °FPleasantly warm.3 mph32%29.99 "HgN/A
3:00 pm81 °FPleasantly warm.3 mph35%30.01 "HgN/A
2:00 pm80 °FSunny.5 mph41%30.03 "HgN/A
1:00 pm78 °FWarm.3 mph43%30.05 "HgN/A
12:00 pm74 °FMild.3 mph48%30.07 "HgN/A
11:00 am69 °FMild.2 mph53%30.09 "HgN/A
10:00 am66 °FMild.2 mph56%30.11 "HgN/A
9:00 am63 °FMild.1 mph64%30.12 "HgN/A
8:00 am60 °FCool.1 mph66%30.12 "HgN/A
7:00 am55 °FCool.3 mph78%30.12 "HgN/A
6:00 am54 °FCool.1 mph77%30.11 "HgN/A
5:00 am56 °FCool.6 mph70%30.09 "HgN/A
4:00 am57 °FCool.3 mph70%30.08 "HgN/A
Weather by CustomWeather, © 2017

See weather overviewHow to use our weather pages